This demonstration page uses our WeatherBlox Daily Observations layout. Learn more.

Left ArrowRight Arrow

Hourly Observations for July 9, 2017

Temp ( °F °C ) Dew Point ( °F °C ) Humidity (%) Winds ( mph kmh ) Pressure ( in mb ) Visibility ( mi km ) Precip ( " mm )
12:53 am 00:53 Clear 83 28.3 46 7.8 27 27 NNE 5 7 29.82 1010 10 16 0.00 0.00
1:53 am 01:53 Clear 78 25.6 50 10 37 37 NW 5 7 29.83 1010 10 16 0.00 0.00
2:53 am 02:53 Clear 77 25 52 11.1 42 42 N 5 7 29.83 1010 10 16 0.00 0.00
3:53 am 03:53 Clear 77 25 52 11.1 42 42 N 3 6 29.83 1010 10 16 0.00 0.00
4:53 am 04:53 Clear 71 21.7 53 11.7 53 53 Calm 29.83 1010 10 16 0.00 0.00
5:53 am 05:53 Sunny 70 21.1 53 11.7 55 55 N 3 6 29.84 1011 10 16 0.00 0.00
6:53 am 06:53 Sunny 72 22.2 54 12.2 53 53 N 3 6 29.85 1011 10 16 0.00 0.00
7:53 am 07:53 Sunny 80 26.7 54 12.2 41 41 Calm 29.85 1011 10 16 0.00 0.00
8:53 am 08:53 Sunny 84 28.9 53 11.7 34 34 Calm 29.85 1011 10 16 0.00 0.00
9:53 am 09:53 Sunny 87 30.6 53 11.7 31 31 SSW 3 6 29.86 1011 10 16 0.00 0.00
10:53 am 10:53 Sunny 93 33.9 47 8.3 21 21 Calm 29.85 1011 10 16 0.00 0.00
11:53 am 11:53 Sunny 96 35.6 47 8.3 19 19 VRB 3 6 29.84 1011 10 16 0.00 0.00
12:53 pm 12:53 Sunny 100 37.8 40 4.4 13 13 VRB 6 9 29.83 1010 10 16 0.00 0.00
1:53 pm 13:53 Sunny 101 38.3 39 3.9 12 12 SW 5 7 29.82 1010 10 16 0.00 0.00
2:53 pm 14:53 Sunny 105 40.6 23 -5 5 5 SE 8 13 29.79 1009 10 16 0.00 0.00
3:53 pm 15:53 Sunny 105 40.6 28 -2.2 7 7 SSE 13 20 29.77 1008 10 16 0.00 0.00
4:53 pm 16:53 Sunny 105 40.6 13 -10.6 3 3 S 10 17 29.76 1008 10 16 0.00 0.00
5:53 pm 17:53 Sunny 104 40 14 -10 4 4 SSE 13 20 29.74 1007 10 16 0.00 0.00
6:53 pm 18:53 Sunny 102 38.9 26 -3.3 7 7 S 10 17 29.73 1007 10 16 0.00 0.00
7:53 pm 19:53 Sunny 97 36.1 35 1.7 11 11 SSE 7 11 29.73 1007 10 16 0.00 0.00
8:53 pm 20:53 Clear 90 32.2 45 7.2 21 21 SSE 6 9 29.74 1007 10 16 0.00 0.00
9:53 pm 21:53 Clear 88 31.1 48 8.9 25 25 Calm 29.76 1008 10 16 0.00 0.00
10:53 pm 22:53 Clear 84 28.9 48 8.9 29 29 NNE 5 7 29.78 1009 10 16 0.00 0.00
11:53 pm 23:53 Clear 79 26.1 49 9.4 35 35 NW 3 6 29.79 1009 10 16 0.00 0.00

Powered by AerisWeather